Temperature
11 11 10 10 10 10 10 9 9 9 9 8 8 8 8 8 8 8 8 8 8 7 7 7 6 6 6 6 6 6 6 6 6 6 6 6 6 6 6 6 6 6 6
11 10 10 10 10 10 9 9 9 9 8 8 8 8 8 8 8 8 8 8 8 8 7 7 7 6 6 6 6 6 6 6 6 6 6 5 5 5 5 5 5 5 5
10 10 10 10 10 9 9 9 9 8 8 8 8 8 8 8 8 8 8 8 8 8 8 7 7 7 6 6 6 6 6 5 5 5 5 5 5 5 5 5 5 4 5
10 10 10 9 9 9 9 9 9 8 8 8 8 8 8 8 8 8 8 8 8 7 7 7 7 7 7 6 6 5 5 5 5 5 5 5 4 4 4 4 4 4 4
10 10 10 9 9 9 9 9 8 8 8 8 8 8 8 8 8 8 8 8 7 7 7 7 7 7 7 7 6 6 5 5 5 5 4 4 4 4 4 4 3 4 4
10 10 10 9 9 9 9 9 8 8 8 8 8 8 8 8 8 8 8 7 7 7 7 7 7 7 7 7 7 6 6 5 5 4 4 4 4 3 3 3 3 3 3
10 10 10 9 9 9 9 9 8 8 8 8 8 8 8 8 8 8 8 7 7 7 7 7 7 7 7 7 6 6 6 5 4 4 3 3 3 3 3 3 3 3 2
10 10 10 9 9 9 9 9 8 8 8 8 8 8 8 8 8 8 8 7 7 7 7 7 7 7 6 6 6 6 6 5 4 3 3 3 3 2 2 2 2 2 2
11 10 10 9 9 9 9 9 8 8 8 8 8 8 8 8 8 8 8 7 7 7 7 7 6 6 6 6 6 5 5 5 4 3 3 3 2 2 2 2 2 2 2
11 10 10 10 9 9 9 9 9 8 8 8 8 8 8 8 8 8 8 7 7 7 7 7 6 6 6 6 5 5 5 5 4 3 3 2 2 2 2 1 1 1 1
11 10 10 10 9 9 9 9 9 8 8 8 8 8 8 8 8 7 8 8 7 7 7 7 6 6 6 5 5 5 4 4 4 3 3 3 2 2 1 1 1 1 1
11 10 10 10 10 9 9 9 9 8 8 8 8 8 8 8 8 7 7 7 7 7 7 7 6 6 5 5 4 4 4 4 3 3 3 3 2 2 1 0 0 -0 -0
11 11 10 10 10 9 9 9 9 9 8 8 8 8 8 8 8 7 7 7 7 7 7 7 6 6 5 4 4 4 3 3 3 3 2 2 2 1 1 0 -0 -1 -1
12 12 11 10 10 10 9 9 9 9 8 8 8 8 8 8 7 7 7 7 6 6 6 6 6 5 5 4 4 3 3 3 2 2 2 1 1 1 0 -0 -1 -1 -1
12 11 11 10 10 9 9 9 9 9 8 8 8 8 8 8 7 7 7 6 6 5 6 6 5 5 4 3 3 3 2 2 2 2 1 1 0 0 -0 -1 -1 -2 -2
12 11 11 10 10 9 9 9 9 9 8 8 8 8 8 7 7 7 7 6 6 5 5 5 5 4 3 3 2 2 2 2 1 1 1 0 -0 -1 -1 -2 -2 -2 -3
11 11 11 10 10 9 9 9 9 9 8 8 8 8 8 7 7 7 6 6 6 5 5 5 4 4 3 3 2 2 1 1 1 0 0 -0 -1 -1 -2 -2 -2 -3 -3
11 11 10 10 10 9 9 9 9 9 8 8 8 8 8 7 7 7 6 6 5 5 4 4 4 3 3 2 2 1 1 1 0 0 -0 -1 -1 -2 -2 -3 -3 -3 -4
11 10 10 10 10 9 9 9 9 9 8 8 8 8 7 7 7 6 6 5 5 4 4 3 3 3 2 2 1 1 1 0 -0 -1 -1 -1 -2 -2 -3 -3 -4 -4 -4
10 10 10 10 9 9 9 9 9 8 8 8 8 7 7 7 7 6 6 5 4 4 3 3 3 2 2 1 1 0 0 -0 -1 -1 -1 -2 -2 -3 -3 -4 -4 -4 -5
10 10 10 9 9 9 9 9 8 8 8 8 7 7 7 7 6 6 5 4 4 3 3 2 2 1 1 1 -0 -1 -1 -1 -1 -2 -2 -2 -3 -3 -4 -4 -4 -5 -5
10 9 9 9 9 9 9 8 8 8 8 7 7 7 7 6 6 5 4 4 3 3 2 2 1 1 0 -0 -1 -1 -2 -2 -3 -3 -3 -3 -4 -4 -4 -5 -5 -5 -6
9 9 9 9 9 9 8 8 8 8 7 7 7 7 6 6 5 4 4 3 3 2 2 1 0 0 -0 -1 -2 -2 -3 -3 -3 -4 -4 -4 -4 -4 -5 -5 -5 -6 -6
9 9 9 8 8 8 8 8 8 7 7 7 6 6 6 5 5 4 3 3 2 2 1 1 0 -0 -1 -2 -2 -3 -3 -3 -4 -4 -5 -5 -5 -5 -5 -5 -6 -6 -7
9 9 8 8 8 8 8 7 7 7 7 6 6 5 5 5 4 3 3 2 2 1 1 -0 -1 -1 -2 -2 -3 -3 -4 -4 -4 -5 -5 -6 -6 -6 -6 -6 -6 -6 -7
8 8 8 8 8 7 7 7 7 6 6 6 5 5 5 4 3 3 2 2 1 1 -0 -1 -1 -2 -2 -3 -3 -4 -4 -5 -5 -6 -6 -7 -7 -8 -8 -7 -6 -7 -7
Wind_Speed
7 7 6 6 6 6 5 4 3 3 2 2 3 3 2 2 2 2 3 4 4 5 6 7 8 9 9 9 10 10 10 11 11 12 12 12 12 13 13 13 14 14 14
11 8 6 6 6 7 6 5 4 2 2 2 2 2 2 1 2 2 3 4 5 6 6 7 8 8 9 9 9 9 10 11 11 12 12 12 13 13 13 13 14 14 15
14 11 7 6 7 8 7 5 3 2 2 2 2 2 2 2 2 3 4 5 6 7 7 7 8 8 8 9 9 9 9 10 11 12 12 12 12 13 13 14 14 14 15
16 12 7 6 9 9 7 4 3 2 2 1 1 2 2 2 2 3 4 4 5 6 6 7 7 8 8 8 9 9 9 10 11 11 12 12 12 13 13 14 14 15 15
17 14 9 9 11 8 5 4 2 2 2 2 2 2 3 2 2 3 4 4 4 4 5 6 6 7 7 8 8 8 9 9 10 11 11 12 12 13 13 14 15 15 15
18 15 10 10 11 6 5 4 3 2 2 3 3 3 3 3 3 3 2 3 3 3 3 4 5 6 7 7 8 8 9 9 10 11 12 12 13 13 14 14 15 15 16
18 15 9 9 9 7 7 7 4 4 2 2 3 2 3 3 3 2 2 2 2 2 2 3 3 4 5 6 7 8 9 10 11 11 12 13 13 14 14 15 15 16 16
19 16 11 9 9 7 7 7 5 4 2 2 3 2 2 3 2 2 1 1 1 2 2 2 2 2 3 4 6 7 9 10 11 12 13 13 14 15 15 16 16 17 17
19 17 15 12 10 9 9 9 8 7 4 2 2 4 3 4 2 2 1 1 1 0 1 0 1 1 1 3 4 6 8 10 12 13 13 14 15 16 16 17 17 18 18
18 18 17 15 12 9 9 9 8 6 6 4 2 1 2 4 3 1 2 2 1 1 1 1 1 1 0 1 3 6 8 10 12 13 14 15 16 17 17 18 18 19 19
15 17 17 14 12 10 10 10 9 7 6 6 5 3 2 2 2 3 3 3 2 2 2 2 2 2 1 1 3 5 8 10 12 13 15 16 17 18 18 19 19 20 20
12 14 15 14 13 11 11 10 10 10 8 6 5 5 5 4 4 4 4 3 3 3 2 2 2 3 3 2 3 5 8 10 12 13 15 16 17 18 19 19 20 21 21
11 15 13 13 12 11 12 11 10 10 9 8 8 5 5 4 4 4 4 3 2 2 2 2 3 4 4 3 3 6 8 10 12 14 15 16 17 18 19 20 20 21 22
14 15 15 14 13 13 12 11 9 9 9 9 9 8 5 5 5 5 5 4 2 2 3 4 2 5 5 4 5 6 7 11 13 15 16 17 17 18 19 20 21 22 22
11 14 15 14 13 13 12 11 9 10 9 9 9 8 6 5 5 4 4 5 5 3 4 4 3 3 6 6 6 6 8 11 14 15 16 17 18 19 19 20 21 22 22
13 15 15 15 14 13 12 12 9 9 10 9 7 8 7 5 5 5 4 4 4 5 4 4 4 3 4 6 7 8 10 12 14 16 17 18 18 19 19 21 22 22 23
14 15 16 15 15 14 13 12 11 11 11 9 8 9 9 7 6 5 4 4 4 4 5 4 3 2 3 4 7 9 10 11 13 15 17 18 18 19 20 21 21 22 23
15 15 15 15 14 14 14 14 13 12 12 12 10 9 9 7 7 6 5 6 5 5 5 5 3 3 5 5 5 6 8 10 12 14 16 18 19 19 20 21 22 23 23
14 14 14 15 15 14 14 14 13 13 12 12 12 11 10 9 9 6 6 6 5 5 4 4 4 3 3 3 3 4 6 7 10 13 15 17 18 19 19 21 22 23 23
14 14 14 14 14 13 13 12 12 12 11 10 11 11 11 11 11 9 8 7 6 5 4 4 4 4 4 3 3 4 5 4 5 9 12 14 16 18 19 21 22 22 22
13 13 13 12 12 11 11 12 12 12 11 10 9 9 9 11 12 10 8 7 7 5 4 4 4 3 4 3 4 3 5 5 5 5 5 8 11 11 15 19 20 21 21
12 12 12 12 12 10 14 18 14 11 11 11 10 8 8 9 12 13 13 11 10 7 6 5 5 5 6 5 4 4 4 5 5 3 3 6 6 7 10 13 18 20 21
11 11 11 11 11 11 15 18 16 11 10 10 9 8 7 7 9 7 9 10 10 12 10 6 6 7 6 6 5 5 5 6 6 4 3 6 4 7 10 14 19 20 20
10 11 10 11 10 10 15 17 16 10 8 8 9 9 8 7 7 7 6 5 6 6 7 6 6 7 6 6 5 5 5 5 6 5 4 5 4 5 8 12 17 18 19
9 9 9 10 10 9 14 15 15 8 7 7 6 7 7 7 10 9 6 5 5 5 7 9 9 9 10 11 8 3 3 4 6 4 3 4 4 5 5 6 12 16 18
9 9 8 8 9 8 12 15 14 7 7 5 4 5 8 8 10 10 7 6 6 5 3 3 4 6 5 7 9 4 3 4 5 4 3 3 3 3 5 4 5 10 13
Wind_Direction
159 160 160 159 156 150 143 131 120 105 82 67 75 82 66 49 43 50 36 36 44 41 49 53 47 41 38 35 33 28 24 21 18 14 11 9 7 3 360 357 355 353 349
169 166 164 166 171 171 166 159 152 134 105 89 71 64 54 50 70 79 70 61 57 56 61 54 46 39 34 31 30 27 23 19 14 12 9 6 3 359 357 354 352 349 347
176 172 168 175 183 179 169 156 146 126 113 97 67 51 54 63 90 99 100 89 75 65 62 55 46 38 31 25 23 22 20 15 12 9 6 3 0 358 355 352 350 348 345
181 175 174 183 184 175 165 151 140 130 125 108 77 35 41 54 80 103 107 101 90 74 63 56 46 37 28 21 17 16 14 10 7 4 1 358 356 354 351 349 347 344 342
184 180 183 184 177 170 165 158 143 145 149 133 97 52 31 39 61 95 101 105 102 88 71 59 48 37 25 19 14 10 7 4 0 358 356 354 352 350 347 345 343 342 340
186 183 183 180 173 165 166 164 154 135 133 130 93 58 30 24 58 76 87 97 104 98 82 70 57 38 26 21 14 8 2 358 354 353 351 350 347 344 341 340 339 338 336
187 185 183 176 176 179 179 169 151 142 128 124 100 45 18 33 55 50 58 83 88 91 86 77 62 43 27 19 14 9 1 354 349 347 346 344 341 338 337 337 335 333 332
189 189 184 182 181 178 174 172 157 144 138 139 132 109 11 347 357 24 23 79 66 66 66 70 56 40 29 22 12 7 358 350 345 343 341 339 337 334 333 332 331 330 328
191 190 189 184 183 180 184 184 174 161 160 153 140 147 157 223 277 320 346 12 355 13 5 32 32 8 14 16 4 353 350 344 340 338 338 336 333 331 330 329 328 326 325
192 192 189 187 185 185 185 186 180 169 154 161 152 119 143 154 164 269 308 313 313 264 272 269 297 275 307 357 345 341 344 339 336 335 334 332 330 329 327 326 325 323 322
193 192 190 188 187 188 187 182 178 176 170 163 163 154 133 100 131 165 246 290 309 284 261 248 239 230 226 305 328 336 340 336 333 331 331 329 328 326 324 323 322 321 319
193 193 191 190 189 188 187 185 183 181 181 170 167 164 162 164 183 177 204 234 258 284 295 273 229 221 224 256 298 331 335 331 328 326 326 325 323 323 321 320 319 318 317
194 195 191 190 189 190 187 182 181 184 182 180 180 185 183 179 161 162 168 196 234 284 304 283 236 226 232 255 289 319 325 324 322 321 321 320 319 319 318 317 316 315 315
196 190 190 190 189 186 184 181 182 185 183 186 187 183 184 186 172 169 166 160 193 277 280 264 267 233 236 250 279 304 312 314 317 317 316 316 315 315 315 315 314 313 313
188 185 188 189 187 184 183 180 186 186 183 188 188 186 187 187 181 179 168 164 168 216 257 250 247 243 236 253 275 293 299 304 312 313 312 312 312 313 313 314 313 312 311
183 183 187 188 186 185 182 182 185 183 182 187 182 182 190 185 180 178 178 175 175 184 230 242 234 240 246 260 273 288 292 300 306 308 309 310 311 311 312 313 312 311 311
183 184 186 187 187 186 184 185 187 181 184 186 183 187 194 181 181 182 177 177 184 177 220 254 241 242 243 256 279 285 288 291 294 301 305 308 309 310 311 312 311 310 310
186 185 184 185 187 188 186 187 188 186 187 189 189 186 193 184 187 184 183 190 196 194 201 240 250 242 243 249 262 278 283 285 287 294 300 305 307 309 310 311 311 310 309
184 183 182 186 189 189 189 190 189 188 190 190 188 190 192 184 193 192 191 197 203 205 202 220 247 241 254 257 270 273 276 281 289 291 297 302 305 307 309 310 311 311 310
183 184 185 187 187 186 188 187 185 187 189 190 189 191 190 190 195 192 197 202 198 199 205 224 248 253 254 259 255 270 285 272 281 290 291 296 300 304 307 310 311 310 310
183 181 181 182 181 183 187 183 184 185 187 188 189 192 194 196 198 196 198 197 191 199 205 222 245 257 257 256 255 252 272 286 278 266 279 291 296 295 297 301 306 307 308
177 176 180 180 181 187 187 186 182 185 186 186 190 192 196 199 207 211 216 211 200 199 207 213 235 245 256 249 251 255 268 292 294 255 256 277 278 280 289 292 298 305 309
173 174 176 177 183 186 181 183 181 179 182 187 187 186 192 203 205 203 217 220 220 224 220 212 225 237 246 242 246 260 257 258 264 263 261 274 262 274 288 292 301 305 311
173 174 175 177 178 181 178 180 177 174 178 183 184 185 189 193 196 192 192 203 217 226 230 226 224 236 240 239 235 248 259 264 263 260 241 270 272 271 288 289 294 303 312
166 168 169 171 175 177 176 176 170 169 177 182 181 181 183 189 203 198 186 200 222 241 245 247 250 255 264 270 268 254 269 284 290 275 230 251 278 287 282 275 288 302 312
160 157 158 166 170 171 173 173 168 166 172 172 170 181 194 198 203 199 188 192 219 234 222 243 258 274 278 283 286 261 235 261 281 286 250 249 276 307 301 273 277 292 301
Height
1537 1539 1540 1542 1544 1545 1547 1548 1549 1550 1551 1551 1552 1552 1552 1552 1552 1551 1551 1551 1550 1550 1550 1550 1549 1548 1547 1546 1545 1544 1542 1541 1540 1539 1537 1536 1535 1533 1532 1531 1529 1528 1527
1535 1537 1539 1541 1543 1544 1546 1547 1549 1549 1550 1551 1551 1551 1551 1551 1551 1551 1551 1550 1550 1550 1549 1549 1548 1548 1547 1546 1544 1543 1542 1540 1539 1537 1536 1534 1533 1531 1530 1529 1527 1526 1524
1533 1536 1538 1540 1542 1543 1545 1546 1548 1549 1550 1550 1550 1551 1551 1551 1551 1550 1550 1550 1549 1549 1549 1548 1547 1547 1546 1545 1544 1542 1541 1539 1538 1536 1535 1533 1531 1530 1528 1527 1525 1523 1522
1531 1534 1536 1538 1540 1542 1544 1545 1547 1548 1549 1549 1550 1550 1550 1550 1550 1549 1549 1549 1549 1548 1548 1547 1547 1546 1545 1544 1542 1541 1539 1538 1536 1535 1533 1531 1530 1528 1526 1525 1523 1521 1519
1528 1531 1534 1536 1538 1540 1542 1544 1545 1546 1547 1548 1548 1549 1549 1549 1548 1548 1548 1548 1548 1548 1547 1547 1546 1545 1543 1542 1541 1539 1538 1537 1535 1533 1532 1530 1528 1526 1524 1523 1521 1519 1517
1525 1528 1531 1534 1536 1538 1540 1542 1543 1545 1546 1547 1547 1547 1547 1547 1547 1547 1547 1547 1547 1547 1546 1545 1545 1543 1542 1541 1539 1538 1536 1535 1533 1532 1530 1528 1526 1524 1522 1520 1518 1516 1514
1521 1524 1527 1530 1533 1535 1537 1539 1541 1543 1544 1545 1546 1546 1546 1545 1545 1546 1546 1546 1546 1545 1545 1544 1543 1542 1540 1539 1537 1536 1534 1533 1532 1530 1528 1526 1524 1522 1520 1518 1515 1513 1511
1517 1520 1523 1526 1529 1532 1534 1536 1538 1540 1541 1543 1544 1544 1544 1545 1543 1544 1544 1544 1544 1544 1543 1542 1541 1540 1538 1537 1535 1534 1532 1531 1529 1528 1526 1524 1522 1520 1517 1515 1512 1510 1507
1511 1515 1519 1522 1525 1528 1531 1533 1535 1537 1539 1540 1541 1543 1542 1542 1542 1542 1542 1542 1542 1542 1541 1540 1539 1538 1536 1535 1533 1532 1530 1528 1526 1525 1523 1521 1519 1517 1514 1512 1509 1506 1504
1506 1510 1514 1517 1521 1524 1527 1529 1532 1534 1536 1537 1538 1539 1540 1540 1540 1540 1540 1539 1539 1539 1539 1538 1537 1535 1534 1533 1531 1529 1527 1525 1523 1521 1519 1517 1515 1513 1510 1508 1505 1502 1499
1500 1504 1509 1512 1516 1519 1522 1525 1528 1530 1532 1534 1535 1536 1537 1537 1537 1537 1537 1537 1537 1537 1536 1535 1534 1533 1531 1530 1528 1526 1524 1522 1520 1518 1516 1513 1511 1508 1505 1503 1500 1497 1494
1493 1498 1502 1506 1510 1514 1517 1520 1523 1526 1528 1530 1531 1532 1533 1534 1534 1534 1534 1533 1533 1534 1533 1532 1531 1530 1528 1527 1525 1523 1521 1519 1517 1514 1511 1509 1506 1503 1500 1497 1494 1492 1489
1485 1490 1495 1500 1504 1508 1512 1516 1519 1521 1524 1525 1527 1528 1530 1530 1531 1531 1531 1530 1530 1529 1529 1528 1528 1527 1525 1524 1522 1520 1518 1515 1513 1510 1507 1504 1501 1498 1495 1492 1489 1486 1483
1478 1484 1489 1494 1498 1503 1507 1510 1513 1516 1519 1521 1523 1524 1525 1526 1527 1527 1528 1527 1526 1525 1524 1524 1524 1523 1522 1520 1518 1516 1514 1511 1508 1505 1502 1499 1496 1493 1489 1486 1483 1480 1477
1473 1478 1483 1488 1492 1497 1501 1505 1508 1511 1514 1516 1518 1520 1521 1522 1523 1523 1524 1524 1524 1521 1519 1519 1519 1518 1518 1516 1514 1511 1509 1506 1503 1501 1498 1494 1491 1487 1484 1481 1477 1474 1470
1467 1472 1477 1482 1486 1491 1495 1499 1502 1506 1508 1511 1513 1515 1516 1517 1518 1519 1519 1519 1519 1518 1516 1515 1515 1514 1513 1511 1509 1507 1504 1501 1499 1496 1493 1489 1486 1482 1478 1475 1471 1468 1464
1461 1466 1471 1475 1480 1484 1489 1493 1496 1500 1502 1505 1507 1509 1511 1512 1513 1514 1514 1514 1514 1513 1511 1510 1510 1509 1508 1506 1504 1502 1499 1496 1493 1491 1487 1484 1480 1477 1473 1469 1465 1461 1457
1455 1460 1465 1469 1474 1478 1482 1486 1490 1493 1496 1499 1501 1503 1505 1507 1508 1508 1509 1509 1509 1508 1507 1505 1504 1504 1503 1501 1499 1496 1494 1491 1488 1485 1482 1478 1475 1471 1467 1463 1459 1455 1451
1449 1454 1459 1463 1467 1472 1476 1480 1484 1487 1490 1493 1496 1498 1499 1501 1502 1503 1503 1503 1503 1503 1502 1500 1499 1498 1497 1496 1493 1490 1488 1485 1482 1479 1476 1472 1469 1465 1460 1456 1452 1448 1444
1443 1448 1453 1457 1462 1466 1470 1474 1477 1481 1484 1487 1489 1491 1493 1495 1496 1497 1497 1498 1498 1497 1497 1495 1493 1492 1491 1489 1487 1484 1480 1478 1475 1473 1469 1466 1463 1459 1455 1450 1446 1442 1438
1438 1443 1447 1452 1456 1460 1464 1467 1471 1474 1477 1480 1483 1485 1487 1489 1490 1491 1492 1492 1492 1491 1490 1489 1488 1486 1485 1483 1481 1477 1474 1471 1468 1465 1462 1460 1457 1453 1449 1444 1440 1436 1432
1433 1437 1442 1446 1450 1454 1458 1462 1465 1468 1471 1474 1476 1479 1481 1483 1484 1485 1486 1486 1486 1486 1485 1484 1482 1481 1479 1478 1475 1472 1468 1464 1460 1459 1455 1452 1450 1446 1442 1438 1434 1430 1426
1427 1432 1436 1441 1445 1449 1453 1456 1460 1463 1465 1468 1471 1473 1475 1476 1478 1479 1479 1480 1480 1480 1480 1479 1477 1475 1474 1472 1469 1466 1463 1459 1456 1453 1449 1444 1443 1439 1436 1432 1429 1425 1421
1422 1427 1431 1435 1440 1444 1447 1451 1454 1457 1460 1462 1465 1467 1469 1470 1472 1473 1473 1473 1473 1474 1474 1472 1471 1470 1468 1466 1463 1461 1457 1453 1450 1448 1445 1439 1435 1432 1429 1427 1424 1420 1416
1418 1422 1427 1431 1435 1438 1442 1446 1449 1451 1454 1457 1459 1461 1463 1464 1466 1467 1467 1467 1467 1467 1467 1466 1465 1464 1462 1460 1458 1455 1452 1448 1443 1441 1439 1435 1429 1425 1422 1420 1418 1415 1411
1414 1418 1422 1426 1430 1433 1437 1440 1443 1446 1448 1451 1453 1455 1457 1458 1460 1460 1461 1461 1461 1461 1461 1459 1459 1458 1456 1454 1453 1450 1447 1443 1439 1435 1433 1430 1425 1422 1416 1413 1412 1410 1406